Location: Chevoux
(46.3801°N, 4.9476°E)
Time: 11:28:31
(UTC+00:00)

Cosmos 1937 Rocket - Pass Details

Date: 28 January 2021
Orbit: 747 x 780 km, 74.0° (Epoch: 07 March)

Event Time Altitude Azimuth Distance (km) Brightness Sun altitude
Rises 17:08:10 0° 178° (S) 3,244 7.0 -5.5°
Reaches altitude 10° 17:10:40 10° 170° (S) 2,324 6.1 -5.9°
Maximum altitude 17:15:33 40° 103° (ESE) 1,149 4.1 -6.7°
Drops below altitude 10° 17:20:28 10° 35° (NE) 2,342 5.5 -7.5°
Sets 17:22:59 0° 28° (NNE) 3,273 6.3 -7.9°
